CZ-3B DEB, 42476

Orbit data source: Space-Track

CZ-3B DEB, 42476 is space debris in HEO originally from a launch on Mon, 19 Dec 2011 UTC launched from the Xichang Space Center, China (XSC). Debris objects in space refer to the collection of defunct objects orbiting the Earth. Examples of debris include non-operational satellites, rocket bodies, and fragments generated from explosions, collisions, or faulty payload assembly.

Loading next visibility...
Identifier
42476, 2011-077AR
Orbit
HEO
Country
Flag of CNCN / PRC
Related business
Manufacturer
CALT
Mission
Spacecraft
Bus & Motor
Unknown
Mass
Unknown
Launch date (UTC)
2011-12-19 (15 years ago)
Launch vehicle
Unknown
Launch site
Xichang Space Center, China (XSC)
Object type
Payload
Rocket body
Debris
Shape & HBR
Unknown shape, 0.1 m
Radar Cross Section
Medium (>0.1 m² and <1 m²)

Expand to show TLE details & history
Last TLE update: 2 months ago

TLE from 2 months ago
0 CZ-3B DEB
1 42476U 11077AR  26183.38724448 -.00001179  00000-0 -26654-1 0  9993
2 42476  27.0210 332.4179 7457497  67.6113 352.0197  1.89473323    11
Epoch: 2026-07-02T09:17Z
TLE epoch observation values (Epoch: 2026-07-02T09:17:37.923Z)
Latitude
0.00013°
Longitude
-87.44925°
Altitude
3,184.527 km
Speed
8.301 km/s
True Right ascension
22h 09m 33s
True Declination
0° 00' 00"
Sunlit
Object was in daylight at epoch
Visualization orbit readout
Latitude
Unknown
Longitude
Unknown
Altitude
Unknown
Speed
Unknown
Apparent Right ascension
Unknown
Apparent Declination
Unknown
Sunlit
N/A
Visualization observer readout
Local Sidereal Time
18:21:09
Azimuth
Unknown
Elevation
Unknown
Doppler factor
Unknown
Orbital elements
Apogee altitude
41,788.248 km
Perigee altitude
636.796 km
Semi-major axis
27,590.659 km
Eccentricity
0.74575
Inclination
27.021°
RAAN
332.4179°
Arg. of periapsis
67.6113°
True anomaly
293.45645°
Mean anomaly
352.0197°
Eccentric anomaly
331.88293°
Mean motion
0.47359 °/min
Orbital period
760.16 mins
BSTAR
-0.026654
Loading maneuver chart data...
Computing Atmospheric mass density...
Loading historical data...
Loading historical data...
Loading historical data...
Loading historical data...
Loading historical data...
Loading historical data...
Loading historical data...

Documentation

Showing up to 5 results
|